Regional Weather Roundup
Issued by NWS

Home | Current Version | Previous Version | Graphics & Text | Print | Product List | Glossary On
Versions: 1 2 3 4 5 6 7 8 9 10 11 12 13 14 15 16 17 18 19 20 21 22 23 24 25 26 27
000
ASUS45 KTFX 271910
RWRMT
MONTANA REGIONAL WEATHER ROUNDUP
NATIONAL WEATHER SERVICE GREAT FALLS MT
100 PM MDT THU APR 27 2017

NOTE: "FAIR" INDICATES FEW OR NO CLOUDS BELOW 12000 FEET WITH NO
SIGNIFICANT WEATHER AND/OR OBSTRUCTIONS TO VISIBILITY.

MTZ001>007-043-272000-
WEST OF THE DIVIDE

CITY           SKY/WX    TMP DP  RH WIND       PRES   REMARKS
KALISPELL      LGT RAIN  39  32  76 SE17      29.77R WCI  30
MISSOULA       CLOUDY    45  27  49 W15       29.83R
BUTTE          CLOUDY    38  26  62 N12       29.74S WCI  30
MULLAN PASS    SNOW      27  27 100 CALM      29.79R VSB 1/4
ANACONDA         N/A     43  18  36 W14G24    29.74S
DEER LODGE       N/A     43  25  49 NW15G23   29.76F
EUREKA           N/A     45  37  76 SE8       29.74S
HAMILTON         N/A     45  18  33 W7        29.81S
LIBBY            N/A     48  28  46 W6        29.77R
$$

MTZ008-052>055-272000-
SOUTHWEST MONTANA

CITY           SKY/WX    TMP DP  RH WIND       PRES   REMARKS
DILLON         CLOUDY    41  21  44 CALM      29.71S
W YELLOWSTONE  CLOUDY    34  23  64 NW3       29.69S
THREE FORKS      N/A     46  11  24 W8        29.73S
TWIN BRIDGES     N/A     45  22  40 N13       29.75
$$

MTZ009-010-012-014-046-048-049-054-272000-
EAST SLOPES AND CENTRAL MONTANA

CITY           SKY/WX    TMP DP  RH WIND       PRES   REMARKS
CUT BANK       LGT SNOW  37  35  92 N15       29.72R FOG     WCI  28
GREAT FALLS    CLOUDY    44  36  73 W10       29.68S
MALMSTROM AFB  PTSUNNY   45  36  71 NW16      29.69S
HELENA         CLOUDY    49  27  42 W18G31    29.70S
AUGUSTA        LGT RAIN  38  37  97 N9        29.70R WCI  32
CHOTEAU          N/A     39  37  93 NW12      29.72S WCI  32
RAYNESFORD     LGT RAIN  41  36  83 NW14      29.69R
$$

MTZ011-013-016-021-045-047-050-051-272000-
NORTH CENTRAL MONTANA

CITY           SKY/WX    TMP DP  RH WIND       PRES   REMARKS
HAVRE          CLOUDY    43  39  86 NE10      29.68R
LEWISTOWN      RAIN      39  36  89 NW7       29.66R FOG
CHINOOK          N/A     43  39  87 NE3       29.68S
FORT BENTON      N/A     45  39  81 MISG      29.69R
GEYSER         PTSUNNY   43  35  74 NW18      29.65S
JUDITH GAP     LGT RAIN  46  35  67 N22G28    29.62S
STANFORD         N/A     45  37  73 NW23      29.65R
$$

MTZ017>020-022>027-061-062-272000-
NORTHEAST MONTANA

CITY           SKY/WX    TMP DP  RH WIND       PRES   REMARKS
GLASGOW        CLOUDY    53  26  35 E12G17    29.68S
JORDAN           N/A     52  29  41 SE12G20   29.64S
SIDNEY         SUNNY     50  23  34 E12G17    29.71F
WOLF POINT     MOSUNNY   52  27  38 E12G20    29.71S
MALTA          PTSUNNY   45  39  81 NE8       29.68S
PLENTYWOOD       N/A     46  19  34 E12       29.73F
POPLAR           N/A     46  21  36 E10G17    29.72S
$$

MTZ028>42-056>058-272000-
SOUTHCENTRAL AND SOUTHEAST MONTANA

CITY           SKY/WX    TMP DP  RH WIND       PRES   REMARKS
BAKER          SUNNY     46  28  49 SE10G22   29.66F
BILLINGS       CLOUDY    46  40  79 N14       29.62S
LIVINGSTON     LGT RAIN  39  36  89 SW17      29.68S WCI  30
MILES CITY     MOSUNNY   54  28  36 VRB6      29.62F
BIG TIMBER     PTSUNNY   45  34  65 W23G29    29.68S
LAUREL           N/A     44  34  68 N6        29.66R
ROUNDUP          N/A     45  37  73 N10       29.59R
$$

REGIONAL REPORTS...DAKOTAS

CITY           SKY/WX    TMP DP  RH WIND       PRES   REMARKS
WILLISTON      SUNNY     50  20  30 E9        29.74S
MINOT          SUNNY     49  20  31 NE12      29.74F
DICKINSON      SUNNY     45  23  42 E9        29.68F
BEACH            N/A     46  23  39 E10G22    29.71S
TIOGA            N/A     45  10  24 NE14G20   29.75F
WATFORD CITY     N/A     46  18  31 E12       29.72S
BISMARCK       SUNNY     50  25  37 N10G18    29.72F
GRAND FORKS    PTSUNNY   40  28  62 N15       29.68F
FARGO          PTSUNNY   33  24  69 N18       29.69F WCI  22
BUFFALO SD       N/A     45  28  51 E9G18     29.59F
RAPID CITY     PTSUNNY   46  32  58 E10       29.63F
$$

REGIONAL REPORTS...WYOMING/IDAHO/WASHINGTON

CITY           SKY/WX    TMP DP  RH WIND       PRES   REMARKS
GILLETTE       LGT RAIN  37  35  92 E6        29.57R
SHERIDAN       LGT SNOW  33  32  96 NW6       29.60S VSB 3/4 WCI  28
BUFFALO WY     SNOW      35  32  88 N18       29.57S VSB 1/2 WCI  24
CODY           CLOUDY    45  34  65 N20G29    29.59S
YELLOWSTONE LA   N/A     30  24  78 NW12G21   29.65R WCI  20
IDAHO FALLS    LGT RAIN  40  33  76 S13G21    29.74F
SALMON         CLOUDY    45  21  39 NE5       29.78F
BOISE          PTSUNNY   47  26  44 W17G25    29.96S
SPOKANE        PTSUNNY   48  29  47 SW21      29.86S
$$

REGIONAL REPORTS...ALBERTA

CITY           SKY/WX    TMP DP  RH WIND       PRES   REMARKS
EDMONTON       CLOUDY    37  34  87 E3        29.80R
CALGARY        MOSUNNY   45  30  57 E7        29.70S
LETHBRIDGE     PTSUNNY   41  36  81 NE10      29.73F
MEDICINE HAT   PTSUNNY   46  30  53 N7        29.72R
WATERTON GATE    N/A     37  32  81 NE6         N/A
CARDSTON         N/A     39  36  87 N2          N/A
MILK RIVER       N/A     39  36  87 NW9         N/A
$$

REGIONAL REPORTS...SASKATCHEWAN

CITY           SKY/WX    TMP DP  RH WIND       PRES   REMARKS
SWIFT CURRENT  CLOUDY    48  25  40 S9        29.68F
REGINA         MOSUNNY   48  10  21 VRB14     29.78S
SASKATOON      CLOUDY    45  21  39 E14G22    29.82F
CYPRESS HILLS    N/A     34  32  93 NW7         N/A  WCI  28
VAL MARIE        N/A     50  27  40 S13G22      N/A
ROCKGLEN         N/A     46  27  46 SE9G17      N/A
ASSINIBOIA       N/A     37  34  87 NE9         N/A  WCI  31
$$




USA.gov is the U.S. government's official web portal to all federal, state and local government web resources and services.